Location: Krasnoyarskiy Pitomnik
(51.1333°N, 71.6167°E)
Time: 23:14:04
(UTC+00:00)

Vanguard 1 - Pass Details

Date: 19 April 2024
Orbit: 651 x 3826 km, 34.2° (Epoch: 18 May)

Event Time Altitude Azimuth Distance (km) Brightness Sun altitude
Exits shadow 22:20:01 - 200° (SSW) 7,001 13.9 -15.3°
Reaches altitude 10° 22:21:04 10° 199° (SSW) 6,836 13.8 -15.2°
Maximum altitude 22:36:50 26° 153° (SSE) 4,820 13.4 -13.3°
Drops below altitude 10° 22:48:30 10° 105° (ESE) 5,031 14.2 -11.8°
Sets 22:52:34 0° 93° (E) 5,593 14.8 -11.3°
